Вернуться в каталог

STARLINK-3580

АктивенСвязьVLEO
NORAD 51781·PAYLOAD·🇺🇸 United States

Запущен Feb 25, 2022 с Vandenberg Space Force Base

Loading…

Ближайшие Пролёты (ближайшие 24 часа)

TLE

СвежийSource: CelesTrak SupGP

Эпоха: Sep 14, 2026, 21:03 UTC

1 51781C 22017P   26257.87756944 -.00043717  00000+0 -12504-2 0  2570
2 51781  53.1574 198.2373 0001194 102.6974  11.7940 15.35429478    17

Отслеживайте STARLINK-3580 в реальном времени с AllMySat

Download on the App Store